EW3808 Weather Reports


Display with metric or nautical units.
time (UTC)temp
F
wind
direction
speed
MPH
gust
MPH
rain 1hr
in
rain 24hr
in
rain mn
in
humidity
%
barometer
mb
20260903042224 57 142 0.0 0.0 0.00 0.00 0.00 24 1019.8
20260903041210 57 171 0.0 4.0 0.00 0.00 0.00 22 1019.8
20260903040153 56 196 2.0 0.0 0.00 0.00 0.00 22 1019.8
20260903035207 56 176 1.0 9.0 0.00 0.00 0.00 29 1019.7
20260903034134 56 178 0.0 6.0 0.00 0.00 0.00 29 1019.6
20260903033156 55 131 1.0 7.0 0.00 0.00 0.00 28 1019.4
20260903032212 55 161 1.0 6.0 0.00 0.00 0.00 29 1019.4
20260903031214 55 126 1.0 6.0 0.00 0.00 0.00 27 1019.3
20260903025035 53 155 0.0 0.0 0.00 0.00 0.00 42 1019.0
20260903024056 54 150 1.0 6.0 0.00 0.00 0.00 42 1019.0
20260903023045 53 192 0.0 4.0 0.00 0.00 0.00 40 1018.9
20260903022019 54 173 0.0 0.0 0.00 0.00 0.00 47 1018.9
20260903020956 55 173 0.0 0.0 0.00 0.00 0.00 48 1018.9
20260903015948 56 173 0.0 0.0 0.00 0.00 0.00 44 1019.0
20260903012658 59 217 0.0 0.0 0.00 0.00 0.00 37 1019.1
20260903010527 61 201 0.0 6.0 0.00 0.00 0.00 31 1019.2
20260903005514 62 221 0.0 0.0 0.00 0.00 0.00 30 1019.3
20260903004506 63 245 0.0 11.0 0.00 0.00 0.00 31 1019.2
20260903003530 63 227 2.0 11.0 0.00 0.00 0.00 28 1019.2
20260903002504 64 190 1.0 0.0 0.00 0.00 0.00 31 1019.2
20260903001514 64 223 1.0 10.0 0.00 0.00 0.00 31 1019.2
20260903000514 65 203 2.0 10.0 0.00 0.00 0.00 30 1019.1
20260902234335 65 189 2.0 9.0 0.00 0.00 0.00 33 1019.1
20260902233336 66 250 1.0 13.0 0.00 0.00 0.00 37 1019.0
20260902232321 66 195 1.0 8.0 0.00 0.00 0.00 34 1018.9
20260902231328 65 208 2.0 13.0 0.00 0.00 0.00 37 1018.9
20260902225203 65 209 3.0 14.0 0.00 0.00 0.00 38 1019.0
20260902224204 65 172 1.0 11.0 0.00 0.00 0.00 40 1018.9
20260902223205 65 221 1.0 18.0 0.00 0.00 0.00 40 1019.1
20260902222228 65 109 3.0 18.0 0.00 0.00 0.00 40 1019.2
20260902221220 65 197 1.0 9.0 0.00 0.00 0.00 37 1019.2
20260902220155 65 245 1.0 0.0 0.00 0.00 0.00 38 1019.1
20260902215215 66 205 2.0 15.0 0.00 0.02 0.00 38 1019.3
20260902214232 66 260 4.0 16.0 0.00 0.02 0.00 35 1019.1
20260902213225 66 9 4.0 16.0 0.00 0.02 0.00 39 1019.4
20260902212242 67 123 2.0 15.0 0.00 0.02 0.00 38 1019.0
20260902210121 65 297 1.0 8.0 0.00 0.02 0.00 43 1019.3
20260902205120 66 118 0.0 8.0 0.00 0.02 0.00 45 1019.4
20260902203028 65 173 4.0 13.0 0.00 0.02 0.00 42 1019.5
20260902202003 65 286 0.0 10.0 0.00 0.02 0.00 40 1019.8
20260902200936 65 154 1.0 9.0 0.00 0.02 0.00 46 1019.9
20260902195957 63 225 3.0 9.0 0.00 0.02 0.00 48 1019.8
20260902195018 63 242 2.0 9.0 0.00 0.02 0.00 45 1019.8
20260902190604 61 142 2.0 11.0 0.00 0.02 0.00 55 1020.7
20260902185545 61 122 4.0 10.0 0.00 0.02 0.00 51 1020.8
20260902184540 62 193 2.0 14.0 0.00 0.02 0.00 52 1020.9
20260902183517 63 222 3.0 14.0 0.00 0.02 0.00 46 1020.9
20260902182450 63 137 4.0 12.0 0.00 0.02 0.00 50 1020.9
20260902181445 63 96 4.0 17.0 0.00 0.02 0.00 49 1020.9
20260902180443 63 108 5.0 17.0 0.00 0.02 0.00 50 1021.0
20260902175410 63 120 4.0 14.0 0.00 0.02 0.00 51 1020.9
20260902174410 61 170 1.0 14.0 0.00 0.02 0.00 56 1021.0
20260902173425 61 171 1.0 14.0 0.00 0.02 0.00 53 1021.0
20260902172421 62 238 0.0 0.0 0.00 0.02 0.00 53 1021.0
20260902170210 61 172 3.0 14.0 0.00 0.02 0.00 55 1021.2
20260902165212 63 165 3.0 14.0 0.00 0.02 0.00 54 1021.3
20260902164146 62 129 3.0 10.0 0.00 0.02 0.00 58 1021.0
20260902163154 60 193 2.0 13.0 0.00 0.02 0.00 62 1021.2
20260902162218 58 183 2.0 13.0 0.00 0.02 0.00 62 1021.3
20260902161155 58 112 4.0 15.0 0.00 0.02 0.00 59 1021.5
20260902160200 59 115 5.0 15.0 0.00 0.02 0.00 61 1021.5
20260902155157 58 72 2.0 11.0 0.00 0.02 0.00 64 1021.6
20260902154128 58 163 2.0 10.0 0.00 0.02 0.00 60 1021.6
20260902153149 60 150 2.0 13.0 0.00 0.02 0.00 59 1021.3
20260902152204 60 201 3.0 13.0 0.00 0.02 0.00 59 1021.4
20260902151134 59 130 1.0 13.0 0.00 0.02 0.00 60 1021.2
20260902150115 58 148 3.0 16.0 0.00 0.02 0.00 62 1021.2
20260902145052 57 139 4.0 16.0 0.00 0.02 0.00 64 1021.3
20260902144045 55 127 3.0 13.0 0.00 0.02 0.00 70 1021.2
20260902143044 54 136 3.0 13.0 0.00 0.02 0.00 71 1021.1
20260902142054 53 129 5.0 12.0 0.00 0.02 0.00 69 1021.3
20260902141104 53 158 3.0 14.0 0.00 0.02 0.00 71 1021.2
20260902140032 52 140 5.0 14.0 0.00 0.02 0.00 74 1021.2
20260902135029 52 157 5.0 12.0 0.00 0.02 0.00 74 1021.1
20260902134023 52 128 5.0 14.0 0.00 0.02 0.00 75 1021.0
20260902133017 52 135 6.0 14.0 0.00 0.02 0.00 75 1020.9
20260902132030 52 141 6.0 13.0 0.00 0.02 0.00 75 1021.0
20260902131045 52 126 6.0 15.0 0.00 0.02 0.00 75 1020.9
20260902130049 51 123 5.0 15.0 0.00 0.02 0.00 76 1021.0
20260902125039 51 163 3.0 12.0 0.00 0.02 0.00 77 1020.9
20260902124102 51 164 3.0 13.0 0.00 0.02 0.00 76 1020.7
20260902123115 51 156 5.0 13.0 0.00 0.02 0.00 76 1020.6
20260902120959 52 159 3.0 10.0 0.00 0.02 0.00 75 1020.7
20260902115946 52 165 4.0 9.0 0.00 0.02 0.00 75 1020.8
20260902115006 52 176 1.0 7.0 0.00 0.02 0.00 75 1020.8
20260902114017 52 161 2.0 0.0 0.00 0.02 0.00 74 1020.8
20260902113000 52 136 4.0 10.0 0.00 0.02 0.00 75 1021.0
20260902112018 51 156 3.0 11.0 0.00 0.02 0.00 76 1021.1
20260902110957 51 144 3.0 11.0 0.00 0.02 0.00 77 1021.0
20260902110015 51 162 0.0 0.0 0.00 0.02 0.00 76 1021.1
20260902105001 51 148 3.0 8.0 0.00 0.02 0.00 75 1021.2
20260902104018 51 148 3.0 8.0 0.00 0.02 0.00 75 1021.1
20260902103022 52 165 3.0 9.0 0.00 0.02 0.00 75 1021.2
20260902102040 52 167 3.0 9.0 0.00 0.02 0.00 75 1021.2
20260902101101 52 167 3.0 8.0 0.00 0.02 0.00 75 1021.4
20260902094856 52 188 3.0 8.0 0.00 0.02 0.00 73 1021.5
20260902093845 52 144 0.0 3.0 0.00 0.02 0.00 72 1021.7
20260902092818 52 157 3.0 9.0 0.00 0.02 0.00 71 1021.7
20260902091834 52 125 2.0 9.0 0.00 0.02 0.00 70 1021.9
20260902090834 52 151 1.0 7.0 0.00 0.02 0.00 71 1021.9
20260902085857 51 152 0.0 4.0 0.00 0.02 0.00 72 1022.0
20260902083728 51 169 3.0 9.0 0.00 0.02 0.00 73 1022.1
20260902082705 51 152 3.0 7.0 0.00 0.02 0.00 74 1022.2
20260902073048 51 140 3.0 8.0 0.00 0.02 0.00 77 1022.2
20260902070953 51 133 5.0 10.0 0.00 0.02 0.00 77 1022.2
20260902064813 51 181 4.0 12.0 0.00 0.02 0.00 78 1022.0
20260902063809 51 158 5.0 12.0 0.00 0.03 0.00 79 1021.9
20260902062802 51 141 2.0 9.0 0.00 0.03 0.00 79 1022.0
20260902061826 52 155 3.0 8.0 0.00 0.03 0.00 78 1022.2
20260902060756 52 171 4.0 9.0 0.00 0.03 0.00 78 1022.2
20260902055734 52 138 4.0 14.0 0.00 0.03 0.03 78 1022.2
20260902053636 53 167 3.0 12.0 0.00 0.03 0.03 78 1022.3
20260902052643 52 179 3.0 12.0 0.00 0.03 0.03 77 1022.2
20260902051612 52 174 3.0 10.0 0.00 0.03 0.03 77 1022.1
20260902050619 53 190 4.0 10.0 0.00 0.03 0.03 77 1022.2
20260902044540 53 170 4.0 11.0 0.00 0.03 0.03 78 1022.6